Time,TemperatureF,DewpointF,PressureIn,WindDirection,WindDirectionDegrees,WindSpeedMPH,WindSpeedGustMPH,Humidity,HourlyPrecipIn,Conditions,Clouds,dailyrainin,SoftwareType,DateUTC
2013-01-17 00:04:00,34.3,26.9,30.13,ESE,103,0.0,0.0,74,0.00,,---,0.00,VWS V14.01,2013-01-17 06:04:00,
2013-01-17 00:09:00,34.3,27.2,30.13,ESE,103,0.0,0.0,75,0.00,,---,0.00,VWS V14.01,2013-01-17 06:09:00,
2013-01-17 00:14:00,34.3,27.5,30.13,ESE,103,0.0,0.0,76,0.00,,---,0.00,VWS V14.01,2013-01-17 06:14:00,
2013-01-17 00:19:00,34.3,27.5,30.14,ESE,103,0.0,0.0,76,0.00,,---,0.00,VWS V14.01,2013-01-17 06:19:00,
2013-01-17 00:24:00,34.3,28.2,30.14,ESE,103,0.0,0.0,78,0.00,,---,0.00,VWS V14.01,2013-01-17 06:24:00,
2013-01-17 00:29:00,34.3,28.2,30.14,ESE,103,1.0,1.0,78,0.00,,---,0.00,VWS V14.01,2013-01-17 06:29:00,
2013-01-17 00:34:00,34.3,28.5,30.14,ESE,103,0.0,0.0,79,0.00,,---,0.00,VWS V14.01,2013-01-17 06:34:00,
2013-01-17 00:39:00,34.3,28.8,30.14,ESE,103,0.0,0.0,80,0.00,,---,0.00,VWS V14.01,2013-01-17 06:39:00,
2013-01-17 00:44:00,34.3,28.8,30.15,ESE,103,0.0,0.0,80,0.00,,---,0.00,VWS V14.01,2013-01-17 06:44:00,
2013-01-17 00:49:00,34.3,28.8,30.15,ESE,103,0.0,0.0,80,0.00,,---,0.00,VWS V14.01,2013-01-17 06:49:00,
2013-01-17 00:54:00,34.3,28.8,30.15,ESE,103,0.0,0.0,80,0.00,,---,0.00,VWS V14.01,2013-01-17 06:54:00,
2013-01-17 00:59:00,34.3,28.8,30.15,ESE,103,0.0,0.0,80,0.00,,---,0.00,VWS V14.01,2013-01-17 06:59:00,
2013-01-17 01:04:00,34.2,28.7,30.15,ESE,103,0.0,1.0,80,0.00,,---,0.00,VWS V14.01,2013-01-17 07:04:00,
2013-01-17 01:09:00,34.1,28.6,30.15,ESE,103,0.0,0.0,80,0.00,,---,0.00,VWS V14.01,2013-01-17 07:09:00,
2013-01-17 01:14:00,34.1,28.6,30.15,ESE,103,0.0,0.0,80,0.00,,---,0.00,VWS V14.01,2013-01-17 07:14:00,
2013-01-17 01:19:00,34.2,28.7,30.15,ESE,103,0.0,0.0,80,0.00,,---,0.00,VWS V14.01,2013-01-17 07:19:00,
2013-01-17 01:24:00,34.2,28.7,30.15,ESE,103,0.0,0.0,80,0.00,,---,0.00,VWS V14.01,2013-01-17 07:24:00,
2013-01-17 01:29:00,34.3,28.8,30.16,ESE,103,0.0,0.0,80,0.00,,---,0.00,VWS V14.01,2013-01-17 07:29:00,
2013-01-17 01:34:00,34.3,28.8,30.16,ESE,103,0.0,0.0,80,0.00,,---,0.00,VWS V14.01,2013-01-17 07:34:00,
2013-01-17 01:39:00,34.3,28.8,30.16,ESE,102,1.0,1.0,80,0.00,,---,0.00,VWS V14.01,2013-01-17 07:39:00,
2013-01-17 01:44:00,34.3,28.8,30.16,East,97,1.0,1.0,80,0.00,,---,0.00,VWS V14.01,2013-01-17 07:44:00,
2013-01-17 01:49:00,34.2,28.7,30.16,East,97,0.0,0.0,80,0.00,,---,0.00,VWS V14.01,2013-01-17 07:49:00,
2013-01-17 01:54:00,34.2,28.7,30.16,East,97,0.0,0.0,80,0.00,,---,0.00,VWS V14.01,2013-01-17 07:54:00,
2013-01-17 01:59:00,34.2,28.4,30.16,East,97,0.0,0.0,79,0.00,,---,0.00,VWS V14.01,2013-01-17 07:59:00,
2013-01-17 02:04:00,34.1,28.0,30.17,East,97,0.0,0.0,78,0.00,,---,0.00,VWS V14.01,2013-01-17 08:04:00,
2013-01-17 02:09:00,34.2,28.1,30.17,East,98,0.0,0.0,78,0.00,,---,0.00,VWS V14.01,2013-01-17 08:09:00,
2013-01-17 02:14:00,34.3,28.2,30.17,East,97,0.0,0.0,78,0.00,,---,0.00,VWS V14.01,2013-01-17 08:14:00,
2013-01-17 02:19:00,34.3,27.9,30.17,East,98,0.0,0.0,77,0.00,,---,0.00,VWS V14.01,2013-01-17 08:19:00,
2013-01-17 02:24:00,34.3,27.9,30.17,East,97,0.0,0.0,77,0.00,,---,0.00,VWS V14.01,2013-01-17 08:24:00,
2013-01-17 02:29:00,34.2,28.1,30.17,East,97,0.0,0.0,78,0.00,,---,0.00,VWS V14.01,2013-01-17 08:29:00,
2013-01-17 02:34:00,34.1,28.0,30.17,NW,314,0.0,0.0,78,0.00,,---,0.00,VWS V14.01,2013-01-17 08:34:00,
2013-01-17 02:39:00,34.0,27.9,30.17,NW,314,0.0,0.0,78,0.00,,---,0.00,VWS V14.01,2013-01-17 08:39:00,
2013-01-17 02:44:00,33.8,27.7,30.17,NW,315,0.0,0.0,78,0.00,,---,0.00,VWS V14.01,2013-01-17 08:44:00,
2013-01-17 02:49:00,33.7,27.6,30.18,NW,314,0.0,0.0,78,0.00,,---,0.00,VWS V14.01,2013-01-17 08:49:00,
2013-01-17 02:54:00,33.7,27.3,30.18,NW,315,0.0,1.0,77,0.00,,---,0.00,VWS V14.01,2013-01-17 08:54:00,
2013-01-17 02:59:00,33.6,27.2,30.18,NW,315,0.0,0.0,77,0.00,,---,0.00,VWS V14.01,2013-01-17 08:59:00,
2013-01-17 03:04:00,33.5,27.1,30.18,NW,315,0.0,0.0,77,0.00,,---,0.00,VWS V14.01,2013-01-17 09:04:00,
2013-01-17 03:09:00,33.5,26.8,30.18,ESE,123,1.0,1.0,76,0.00,,---,0.00,VWS V14.01,2013-01-17 09:09:00,
2013-01-17 03:14:00,33.5,26.8,30.18,SE,124,0.0,0.0,76,0.00,,---,0.00,VWS V14.01,2013-01-17 09:14:00,
2013-01-17 03:19:00,33.4,26.7,30.18,SE,124,0.0,0.0,76,0.00,,---,0.00,VWS V14.01,2013-01-17 09:19:00,
2013-01-17 03:24:00,33.3,26.6,30.18,SW,236,0.0,1.0,76,0.00,,---,0.00,VWS V14.01,2013-01-17 09:24:00,
2013-01-17 03:29:00,33.4,27.0,30.18,WSW,242,0.0,0.0,77,0.00,,---,0.00,VWS V14.01,2013-01-17 09:29:00,
2013-01-17 03:34:00,33.4,27.0,30.19,South,187,0.0,0.0,77,0.00,,---,0.00,VWS V14.01,2013-01-17 09:34:00,
2013-01-17 03:39:00,33.6,27.2,30.19,East,89,0.0,1.0,77,0.00,,---,0.00,VWS V14.01,2013-01-17 09:39:00,
2013-01-17 03:44:00,33.7,27.3,30.19,North,1,3.0,3.0,77,0.00,,---,0.00,VWS V14.01,2013-01-17 09:44:00,
2013-01-17 03:49:00,33.9,27.5,30.19,WNW,301,1.0,1.0,77,0.00,,---,0.00,VWS V14.01,2013-01-17 09:49:00,
2013-01-17 03:54:00,33.9,27.5,30.19,NW,314,1.0,1.0,77,0.00,,---,0.00,VWS V14.01,2013-01-17 09:54:00,
2013-01-17 03:59:00,33.7,27.6,30.19,WSW,257,0.0,0.0,78,0.00,,---,0.00,VWS V14.01,2013-01-17 09:59:00,
2013-01-17 04:04:00,33.5,27.4,30.19,West,277,0.0,1.0,78,0.00,,---,0.00,VWS V14.01,2013-01-17 10:04:00,
2013-01-17 04:09:00,33.3,27.2,30.19,West,278,1.0,1.0,78,0.00,,---,0.00,VWS V14.01,2013-01-17 10:09:00,
2013-01-17 04:14:00,33.0,27.2,30.20,WSW,257,0.0,0.0,79,0.00,,---,0.00,VWS V14.01,2013-01-17 10:14:00,
2013-01-17 04:19:00,32.8,27.3,30.19,NW,312,0.0,0.0,80,0.00,,---,0.00,VWS V14.01,2013-01-17 10:19:00,
2013-01-17 04:24:00,32.5,27.0,30.19,WNW,300,1.0,1.0,80,0.00,,---,0.00,VWS V14.01,2013-01-17 10:24:00,
2013-01-17 04:29:00,32.4,26.9,30.20,NW,309,1.0,2.0,80,0.00,,---,0.00,VWS V14.01,2013-01-17 10:29:00,
2013-01-17 04:34:00,32.3,26.8,30.20,WNW,298,0.0,1.0,80,0.00,,---,0.00,VWS V14.01,2013-01-17 10:34:00,
2013-01-17 04:39:00,32.3,26.8,30.20,SW,221,1.0,1.0,80,0.00,,---,0.00,VWS V14.01,2013-01-17 10:39:00,
2013-01-17 04:44:00,32.2,26.7,30.20,North,355,1.0,2.0,80,0.00,,---,0.00,VWS V14.01,2013-01-17 10:44:00,
2013-01-17 04:49:00,32.3,26.8,30.20,West,266,3.0,3.0,80,0.00,,---,0.00,VWS V14.01,2013-01-17 10:49:00,
2013-01-17 04:54:00,32.2,26.7,30.20,NW,304,0.0,0.0,80,0.00,,---,0.00,VWS V14.01,2013-01-17 10:54:00,
2013-01-17 04:59:00,32.1,26.6,30.21,North,351,0.0,0.0,80,0.00,,---,0.00,VWS V14.01,2013-01-17 10:59:00,
2013-01-17 05:04:00,32.0,26.8,30.21,WNW,292,0.0,1.0,81,0.00,,---,0.00,VWS V14.01,2013-01-17 11:04:00,
2013-01-17 05:09:00,31.9,26.7,30.21,WNW,293,1.0,1.0,81,0.00,,---,0.00,VWS V14.01,2013-01-17 11:09:00,
2013-01-17 05:14:00,31.8,26.6,30.22,SW,217,0.0,0.0,81,0.00,,---,0.00,VWS V14.01,2013-01-17 11:14:00,
2013-01-17 05:19:00,31.5,26.4,30.22,SW,217,0.0,0.0,81,0.00,,---,0.00,VWS V14.01,2013-01-17 11:19:00,
2013-01-17 05:24:00,31.3,26.5,30.22,WSW,255,0.0,0.0,82,0.00,,---,0.00,VWS V14.01,2013-01-17 11:24:00,
2013-01-17 05:29:00,31.2,26.6,30.22,South,187,0.0,0.0,83,0.00,,---,0.00,VWS V14.01,2013-01-17 11:29:00,
2013-01-17 05:34:00,31.3,26.8,30.22,WNW,295,1.0,1.0,83,0.00,,---,0.00,VWS V14.01,2013-01-17 11:34:00,
2013-01-17 05:39:00,31.4,26.8,30.22,SSW,195,0.0,1.0,83,0.00,,---,0.00,VWS V14.01,2013-01-17 11:39:00,
2013-01-17 05:44:00,31.6,27.3,30.23,SW,217,0.0,0.0,84,0.00,,---,0.00,VWS V14.01,2013-01-17 11:44:00,
2013-01-17 05:49:00,31.8,27.8,30.23,NW,318,1.0,1.0,85,0.00,,---,0.00,VWS V14.01,2013-01-17 11:49:00,
2013-01-17 05:54:00,32.2,28.2,30.23,NNW,342,0.0,0.0,85,0.00,,---,0.00,VWS V14.01,2013-01-17 11:54:00,
2013-01-17 05:59:00,32.3,28.3,30.23,NNW,342,1.0,1.0,85,0.00,,---,0.00,VWS V14.01,2013-01-17 11:59:00,
2013-01-17 06:04:00,32.5,28.5,30.23,NE,43,1.0,2.0,85,0.00,,---,0.00,VWS V14.01,2013-01-17 12:04:00,
2013-01-17 06:09:00,32.8,28.8,30.23,NE,36,1.0,1.0,85,0.00,,---,0.00,VWS V14.01,2013-01-17 12:09:00,
2013-01-17 06:14:00,32.9,28.9,30.23,NE,46,0.0,2.0,85,0.00,,---,0.00,VWS V14.01,2013-01-17 12:14:00,
2013-01-17 06:19:00,33.0,29.0,30.23,WSW,249,3.0,5.0,85,0.00,,---,0.00,VWS V14.01,2013-01-17 12:19:00,
2013-01-17 06:24:00,33.0,29.0,30.24,NW,315,1.0,1.0,85,0.00,,---,0.00,VWS V14.01,2013-01-17 12:24:00,
2013-01-17 06:29:00,33.0,29.0,30.24,NW,309,2.0,3.0,85,0.00,,---,0.00,VWS V14.01,2013-01-17 12:29:00,
2013-01-17 06:34:00,33.0,29.3,30.24,NW,307,3.0,4.0,86,0.00,,---,0.00,VWS V14.01,2013-01-17 12:34:00,
2013-01-17 06:39:00,32.9,29.2,30.24,NE,34,1.0,3.0,86,0.00,,---,0.00,VWS V14.01,2013-01-17 12:39:00,
2013-01-17 06:44:00,32.9,29.2,30.25,NNW,346,2.0,2.0,86,0.00,,---,0.00,VWS V14.01,2013-01-17 12:44:00,
2013-01-17 06:49:00,32.8,29.4,30.25,West,274,1.0,5.0,87,0.00,,---,0.00,VWS V14.01,2013-01-17 12:49:00,
2013-01-17 06:54:00,32.8,29.4,30.26,South,169,0.0,3.0,87,0.00,,---,0.00,VWS V14.01,2013-01-17 12:54:00,
2013-01-17 06:59:00,32.8,29.4,30.26,NNW,339,0.0,1.0,87,0.00,,---,0.00,VWS V14.01,2013-01-17 12:59:00,
2013-01-17 07:04:00,32.7,29.5,30.26,West,280,0.0,2.0,88,0.00,,---,0.00,VWS V14.01,2013-01-17 13:04:00,
2013-01-17 07:09:00,32.6,29.2,30.27,ESE,108,0.0,0.0,87,0.00,,---,0.00,VWS V14.01,2013-01-17 13:09:00,
2013-01-17 07:14:00,32.4,29.2,30.27,NNE,20,1.0,1.0,88,0.00,,---,0.00,VWS V14.01,2013-01-17 13:14:00,
2013-01-17 07:19:00,32.2,29.0,30.27,NE,37,0.0,1.0,88,0.00,,---,0.00,VWS V14.01,2013-01-17 13:19:00,
2013-01-17 07:24:00,32.1,29.2,30.27,SE,136,2.0,2.0,89,0.00,,---,0.00,VWS V14.01,2013-01-17 13:24:00,
2013-01-17 07:29:00,32.2,29.6,30.27,ESE,103,1.0,1.0,90,0.00,,---,0.00,VWS V14.01,2013-01-17 13:29:00,
2013-01-17 07:34:00,32.3,29.7,30.27,NW,324,2.0,2.0,90,0.00,,---,0.00,VWS V14.01,2013-01-17 13:34:00,
2013-01-17 07:39:00,32.5,29.9,30.28,NW,321,0.0,1.0,90,0.00,,---,0.00,VWS V14.01,2013-01-17 13:39:00,
2013-01-17 07:44:00,32.7,30.1,30.28,NW,311,0.0,2.0,90,0.00,,---,0.00,VWS V14.01,2013-01-17 13:44:00,
2013-01-17 07:49:00,33.1,30.2,30.28,NW,325,3.0,4.0,89,0.00,,---,0.00,VWS V14.01,2013-01-17 13:49:00,
2013-01-17 07:54:00,33.3,30.4,30.29,West,281,2.0,3.0,89,0.00,,---,0.00,VWS V14.01,2013-01-17 13:54:00,
2013-01-17 07:59:00,33.6,30.4,30.29,NNW,330,0.0,2.0,88,0.00,,---,0.00,VWS V14.01,2013-01-17 13:59:00,
2013-01-17 08:04:00,33.9,30.7,30.30,NW,308,1.0,2.0,88,0.00,,---,0.00,VWS V14.01,2013-01-17 14:04:00,
2013-01-17 08:09:00,34.1,30.6,30.31,NW,304,1.0,2.0,87,0.00,,---,0.00,VWS V14.01,2013-01-17 14:09:00,
2013-01-17 08:14:00,34.4,30.9,30.31,West,277,3.0,4.0,87,0.00,,---,0.00,VWS V14.01,2013-01-17 14:14:00,
2013-01-17 08:19:00,34.5,30.8,30.31,West,264,1.0,2.0,86,0.00,,---,0.00,VWS V14.01,2013-01-17 14:19:00,
2013-01-17 08:24:00,34.9,31.1,30.32,NNW,338,3.0,7.0,86,0.00,,---,0.00,VWS V14.01,2013-01-17 14:24:00,
2013-01-17 08:29:00,35.0,31.0,30.32,WSW,257,2.0,2.0,85,0.00,,---,0.00,VWS V14.01,2013-01-17 14:29:00,
2013-01-17 08:34:00,35.1,31.0,30.33,NNW,339,1.0,3.0,85,0.00,,---,0.00,VWS V14.01,2013-01-17 14:34:00,
2013-01-17 08:39:00,35.2,31.1,30.33,WNW,300,2.0,3.0,85,0.00,,---,0.00,VWS V14.01,2013-01-17 14:39:00,
2013-01-17 08:44:00,35.3,31.2,30.34,NNW,335,1.0,3.0,85,0.00,,---,0.00,VWS V14.01,2013-01-17 14:44:00,
2013-01-17 08:49:00,35.4,31.1,30.34,NW,320,1.0,2.0,84,0.00,,---,0.00,VWS V14.01,2013-01-17 14:49:00,
2013-01-17 08:54:00,35.4,31.1,30.34,NW,326,0.0,0.0,84,0.00,,---,0.00,VWS V14.01,2013-01-17 14:54:00,
2013-01-17 08:59:00,35.3,31.0,30.35,NNW,338,3.0,4.0,84,0.00,,---,0.00,VWS V14.01,2013-01-17 14:59:00,
2013-01-17 09:04:00,35.2,31.1,30.35,NNE,22,2.0,3.0,85,0.00,,---,0.00,VWS V14.01,2013-01-17 15:04:00,
2013-01-17 09:09:00,35.2,30.9,30.35,NNE,24,1.0,1.0,84,0.00,,---,0.00,VWS V14.01,2013-01-17 15:09:00,
2013-01-17 09:14:00,35.3,31.0,30.35,NNW,346,1.0,1.0,84,0.00,,---,0.00,VWS V14.01,2013-01-17 15:14:00,
2013-01-17 09:19:00,35.7,31.4,30.35,ESE,116,1.0,1.0,84,0.00,,---,0.00,VWS V14.01,2013-01-17 15:19:00,
2013-01-17 09:24:00,36.2,31.5,30.35,NW,309,3.0,3.0,83,0.00,,---,0.00,VWS V14.01,2013-01-17 15:24:00,
2013-01-17 09:29:00,36.4,31.4,30.35,NW,314,0.0,1.0,82,0.00,,---,0.00,VWS V14.01,2013-01-17 15:29:00,
2013-01-17 09:34:00,36.6,31.6,30.35,NW,319,2.0,2.0,82,0.00,,---,0.00,VWS V14.01,2013-01-17 15:34:00,
2013-01-17 09:39:00,36.7,31.4,30.36,NNW,332,1.0,2.0,81,0.00,,---,0.00,VWS V14.01,2013-01-17 15:39:00,
2013-01-17 09:44:00,36.8,31.2,30.36,WNW,293,2.0,2.0,80,0.00,,---,0.00,VWS V14.01,2013-01-17 15:44:00,
2013-01-17 09:49:00,36.8,31.2,30.36,WNW,295,1.0,1.0,80,0.00,,---,0.00,VWS V14.01,2013-01-17 15:49:00,
2013-01-17 09:54:00,36.9,31.3,30.36,NW,309,2.0,2.0,80,0.00,,---,0.00,VWS V14.01,2013-01-17 15:54:00,
2013-01-17 09:59:00,36.9,31.0,30.36,East,90,1.0,4.0,79,0.00,,---,0.00,VWS V14.01,2013-01-17 15:59:00,
2013-01-17 10:04:00,36.9,31.0,30.37,NNE,25,2.0,3.0,79,0.00,,---,0.00,VWS V14.01,2013-01-17 16:04:00,
2013-01-17 10:09:00,36.8,30.9,30.36,ENE,74,1.0,2.0,79,0.00,,---,0.00,VWS V14.01,2013-01-17 16:09:00,
2013-01-17 10:14:00,36.7,30.8,30.36,NW,312,2.0,2.0,79,0.00,,---,0.00,VWS V14.01,2013-01-17 16:14:00,
2013-01-17 10:19:00,36.8,30.9,30.36,WNW,298,2.0,4.0,79,0.00,,---,0.00,VWS V14.01,2013-01-17 16:19:00,
2013-01-17 10:24:00,36.6,30.4,30.37,North,5,1.0,1.0,78,0.00,,---,0.00,VWS V14.01,2013-01-17 16:24:00,
2013-01-17 10:29:00,36.6,30.4,30.37,NNW,335,0.0,1.0,78,0.00,,---,0.00,VWS V14.01,2013-01-17 16:29:00,
2013-01-17 10:34:00,36.8,30.6,30.37,WNW,292,1.0,1.0,78,0.00,,---,0.00,VWS V14.01,2013-01-17 16:34:00,
2013-01-17 10:39:00,37.0,30.5,30.37,NW,307,1.0,1.0,77,0.00,,---,0.00,VWS V14.01,2013-01-17 16:39:00,
2013-01-17 10:44:00,37.1,30.6,30.37,NW,304,3.0,4.0,77,0.00,,---,0.00,VWS V14.01,2013-01-17 16:44:00,
2013-01-17 10:49:00,37.2,30.7,30.37,SSW,204,3.0,5.0,77,0.00,,---,0.00,VWS V14.01,2013-01-17 16:49:00,
2013-01-17 10:54:00,37.4,30.2,30.37,SE,146,1.0,2.0,75,0.00,,---,0.00,VWS V14.01,2013-01-17 16:54:00,
2013-01-17 10:59:00,37.8,30.9,30.36,SW,215,0.0,3.0,76,0.00,,---,0.00,VWS V14.01,2013-01-17 16:59:00,
2013-01-17 11:04:00,38.3,30.8,30.37,NNE,19,0.0,0.0,74,0.00,,---,0.00,VWS V14.01,2013-01-17 17:04:00,
2013-01-17 11:09:00,38.3,30.8,30.37,West,263,4.0,6.0,74,0.00,,---,0.00,VWS V14.01,2013-01-17 17:09:00,
2013-01-17 11:14:00,37.9,30.0,30.36,NW,314,2.0,4.0,73,0.00,,---,0.00,VWS V14.01,2013-01-17 17:14:00,
2013-01-17 11:19:00,37.9,30.4,30.37,NW,307,1.0,1.0,74,0.00,,---,0.00,VWS V14.01,2013-01-17 17:19:00,
2013-01-17 11:24:00,38.0,30.5,30.37,WNW,302,4.0,6.0,74,0.00,,---,0.00,VWS V14.01,2013-01-17 17:24:00,
2013-01-17 11:29:00,37.8,29.6,30.37,NW,309,5.0,5.0,72,0.00,,---,0.00,VWS V14.01,2013-01-17 17:29:00,
2013-01-17 11:34:00,37.9,29.7,30.37,NW,304,2.0,2.0,72,0.00,,---,0.00,VWS V14.01,2013-01-17 17:34:00,
2013-01-17 11:39:00,37.9,29.7,30.37,NW,307,1.0,1.0,72,0.00,,---,0.00,VWS V14.01,2013-01-17 17:39:00,
2013-01-17 11:44:00,38.3,30.4,30.37,WNW,291,3.0,4.0,73,0.00,,---,0.00,VWS V14.01,2013-01-17 17:44:00,
2013-01-17 11:49:00,38.1,29.5,30.36,SSW,192,1.0,2.0,71,0.00,,---,0.00,VWS V14.01,2013-01-17 17:49:00,
2013-01-17 11:54:00,38.1,29.5,30.37,WNW,300,1.0,1.0,71,0.00,,---,0.00,VWS V14.01,2013-01-17 17:54:00,
2013-01-17 11:59:00,38.3,29.7,30.36,North,353,4.0,4.0,71,0.00,,---,0.00,VWS V14.01,2013-01-17 17:59:00,
2013-01-17 12:04:00,38.0,29.5,30.36,WNW,296,1.0,2.0,71,0.00,,---,0.00,VWS V14.01,2013-01-17 18:04:00,
2013-01-17 12:09:00,38.3,30.1,30.36,NW,309,2.0,4.0,72,0.00,,---,0.00,VWS V14.01,2013-01-17 18:09:00,
2013-01-17 12:14:00,38.4,29.5,30.36,WNW,290,1.0,1.0,70,0.00,,---,0.00,VWS V14.01,2013-01-17 18:14:00,
2013-01-17 12:19:00,38.6,29.3,30.35,ENE,75,2.0,2.0,69,0.00,,---,0.00,VWS V14.01,2013-01-17 18:19:00,
2013-01-17 12:24:00,38.7,29.1,30.35,WSW,242,3.0,3.0,68,0.00,,---,0.00,VWS V14.01,2013-01-17 18:24:00,
2013-01-17 12:29:00,38.6,27.9,30.35,SSW,211,0.0,3.0,65,0.00,,---,0.00,VWS V14.01,2013-01-17 18:29:00,
2013-01-17 12:34:00,38.7,28.3,30.35,NW,323,4.0,4.0,66,0.00,,---,0.00,VWS V14.01,2013-01-17 18:34:00,
2013-01-17 12:39:00,38.7,28.7,30.35,WNW,294,2.0,2.0,67,0.00,,---,0.00,VWS V14.01,2013-01-17 18:39:00,
2013-01-17 12:44:00,38.9,28.1,30.35,West,278,2.0,2.0,65,0.00,,---,0.00,VWS V14.01,2013-01-17 18:44:00,
2013-01-17 12:49:00,39.1,26.8,30.35,NW,326,3.0,3.0,61,0.00,,---,0.00,VWS V14.01,2013-01-17 18:49:00,
2013-01-17 12:54:00,39.4,27.5,30.35,SE,139,1.0,1.0,62,0.00,,---,0.00,VWS V14.01,2013-01-17 18:54:00,
2013-01-17 12:59:00,39.7,26.6,30.35,NNW,348,0.0,1.0,59,0.00,,---,0.00,VWS V14.01,2013-01-17 18:59:00,
2013-01-17 13:04:00,40.0,26.8,30.35,NNE,21,1.0,3.0,59,0.00,,---,0.00,VWS V14.01,2013-01-17 19:04:00,
2013-01-17 13:09:00,40.0,25.6,30.35,ENE,72,1.0,1.0,56,0.00,,---,0.00,VWS V14.01,2013-01-17 19:09:00,
2013-01-17 13:14:00,39.8,26.2,30.34,NW,325,2.0,4.0,58,0.00,,---,0.00,VWS V14.01,2013-01-17 19:14:00,
2013-01-17 13:19:00,39.9,26.8,30.34,NW,307,1.0,2.0,59,0.00,,---,0.00,VWS V14.01,2013-01-17 19:19:00,
2013-01-17 13:24:00,40.2,27.0,30.34,NW,307,0.0,1.0,59,0.00,,---,0.00,VWS V14.01,2013-01-17 19:24:00,
2013-01-17 13:29:00,40.2,26.6,30.34,South,190,0.0,0.0,58,0.00,,---,0.00,VWS V14.01,2013-01-17 19:29:00,
2013-01-17 13:34:00,40.4,26.4,30.35,WNW,289,1.0,3.0,57,0.00,,---,0.00,VWS V14.01,2013-01-17 19:34:00,
2013-01-17 13:39:00,40.5,26.5,30.34,West,276,1.0,3.0,57,0.00,,---,0.00,VWS V14.01,2013-01-17 19:39:00,
2013-01-17 13:44:00,40.4,25.5,30.35,NNE,13,1.0,1.0,55,0.00,,---,0.00,VWS V14.01,2013-01-17 19:44:00,
2013-01-17 13:49:00,40.4,26.0,30.35,North,358,4.0,5.0,56,0.00,,---,0.00,VWS V14.01,2013-01-17 19:49:00,
2013-01-17 13:54:00,40.4,25.1,30.35,ESE,102,5.0,5.0,54,0.00,,---,0.00,VWS V14.01,2013-01-17 19:54:00,
2013-01-17 14:09:00,40.4,25.1,30.35,NW,317,6.0,6.0,54,0.00,,---,0.00,VWS V14.01,2013-01-17 20:09:00,
2013-01-17 14:14:00,40.4,23.7,30.35,West,277,3.0,3.0,51,0.00,,---,0.00,VWS V14.01,2013-01-17 20:14:00,
2013-01-17 14:29:00,40.6,23.9,30.36,WSW,256,1.0,1.0,51,0.00,,---,0.00,VWS V14.01,2013-01-17 20:29:00,
2013-01-17 14:34:00,40.7,23.5,30.37,NNW,345,2.0,6.0,50,0.00,,---,0.00,VWS V14.01,2013-01-17 20:34:00,
2013-01-17 14:39:00,40.2,23.1,30.37,NW,315,2.0,4.0,50,0.00,,---,0.00,VWS V14.01,2013-01-17 20:39:00,
2013-01-17 14:44:00,39.9,23.3,30.36,WNW,295,0.0,1.0,51,0.00,,---,0.00,VWS V14.01,2013-01-17 20:44:00,
2013-01-17 14:49:00,40.0,23.4,30.37,WNW,297,3.0,4.0,51,0.00,,---,0.00,VWS V14.01,2013-01-17 20:49:00,
2013-01-17 14:54:00,39.8,22.7,30.37,WNW,301,3.0,4.0,50,0.00,,---,0.00,VWS V14.01,2013-01-17 20:54:00,
2013-01-17 14:59:00,39.6,23.0,30.37,WNW,298,1.0,2.0,51,0.00,,---,0.00,VWS V14.01,2013-01-17 20:59:00,
2013-01-17 15:04:00,39.6,23.0,30.37,West,269,3.0,3.0,51,0.00,,---,0.00,VWS V14.01,2013-01-17 21:04:00,
2013-01-17 15:09:00,39.4,22.8,30.37,WNW,298,1.0,2.0,51,0.00,,---,0.00,VWS V14.01,2013-01-17 21:09:00,
2013-01-17 15:14:00,39.3,22.2,30.37,NW,322,1.0,3.0,50,0.00,,---,0.00,VWS V14.01,2013-01-17 21:14:00,
2013-01-17 15:19:00,39.4,22.8,30.38,NW,325,1.0,2.0,51,0.00,,---,0.00,VWS V14.01,2013-01-17 21:19:00,
2013-01-17 15:24:00,39.3,22.2,30.38,ESE,105,2.0,3.0,50,0.00,,---,0.00,VWS V14.01,2013-01-17 21:24:00,
2013-01-17 15:29:00,38.9,22.3,30.38,WNW,296,1.0,1.0,51,0.00,,---,0.00,VWS V14.01,2013-01-17 21:29:00,
2013-01-17 15:34:00,38.8,22.7,30.38,NW,321,1.0,4.0,52,0.00,,---,0.00,VWS V14.01,2013-01-17 21:34:00,
2013-01-17 15:39:00,38.7,22.6,30.38,WSW,248,1.0,2.0,52,0.00,,---,0.00,VWS V14.01,2013-01-17 21:39:00,
2013-01-17 15:44:00,38.6,23.0,30.38,West,271,1.0,3.0,53,0.00,,---,0.00,VWS V14.01,2013-01-17 21:44:00,
2013-01-17 15:49:00,38.5,22.9,30.39,WNW,288,1.0,1.0,53,0.00,,---,0.00,VWS V14.01,2013-01-17 21:49:00,
2013-01-17 15:54:00,38.4,23.7,30.39,NW,324,1.0,2.0,55,0.00,,---,0.00,VWS V14.01,2013-01-17 21:54:00,
2013-01-17 15:59:00,38.3,24.0,30.39,West,277,1.0,1.0,56,0.00,,---,0.00,VWS V14.01,2013-01-17 21:59:00,
2013-01-17 16:04:00,38.1,24.2,30.39,WNW,298,2.0,3.0,57,0.00,,---,0.00,VWS V14.01,2013-01-17 22:04:00,
2013-01-17 16:09:00,38.0,24.1,30.39,NW,307,1.0,1.0,57,0.00,,---,0.00,VWS V14.01,2013-01-17 22:09:00,
2013-01-17 16:14:00,37.8,24.4,30.39,WNW,293,1.0,1.0,58,0.00,,---,0.00,VWS V14.01,2013-01-17 22:14:00,
2013-01-17 16:19:00,37.6,24.2,30.40,WSW,250,1.0,3.0,58,0.00,,---,0.00,VWS V14.01,2013-01-17 22:19:00,
2013-01-17 16:24:00,37.3,23.9,30.40,NW,309,0.0,0.0,58,0.00,,---,0.00,VWS V14.01,2013-01-17 22:24:00,
2013-01-17 16:29:00,37.2,24.2,30.40,ENE,63,0.0,0.0,59,0.00,,---,0.00,VWS V14.01,2013-01-17 22:29:00,
2013-01-17 16:34:00,36.8,23.8,30.40,WNW,283,2.0,2.0,59,0.00,,---,0.00,VWS V14.01,2013-01-17 22:34:00,
2013-01-17 16:39:00,36.5,23.5,30.41,WNW,293,1.0,2.0,59,0.00,,---,0.00,VWS V14.01,2013-01-17 22:39:00,
2013-01-17 16:44:00,36.3,23.4,30.41,WSW,246,1.0,1.0,59,0.00,,---,0.00,VWS V14.01,2013-01-17 22:44:00,
2013-01-17 16:49:00,36.1,23.2,30.41,WNW,294,0.0,0.0,59,0.00,,---,0.00,VWS V14.01,2013-01-17 22:49:00,
2013-01-17 16:54:00,35.8,22.9,30.42,NNW,333,0.0,0.0,59,0.00,,---,0.00,VWS V14.01,2013-01-17 22:54:00,
2013-01-17 16:59:00,35.6,23.1,30.42,North,358,0.0,1.0,60,0.00,,---,0.00,VWS V14.01,2013-01-17 22:59:00,
2013-01-17 17:04:00,35.3,22.8,30.42,WNW,295,0.0,0.0,60,0.00,,---,0.00,VWS V14.01,2013-01-17 23:04:00,
2013-01-17 17:09:00,35.2,22.7,30.42,NW,322,0.0,0.0,60,0.00,,---,0.00,VWS V14.01,2013-01-17 23:09:00,
2013-01-17 17:14:00,34.8,22.3,30.42,NW,324,0.0,0.0,60,0.00,,---,0.00,VWS V14.01,2013-01-17 23:14:00,
2013-01-17 17:19:00,34.7,22.6,30.43,NW,315,0.0,0.0,61,0.00,,---,0.00,VWS V14.01,2013-01-17 23:19:00,
2013-01-17 17:24:00,34.3,22.3,30.43,ESE,117,0.0,1.0,61,0.00,,---,0.00,VWS V14.01,2013-01-17 23:24:00,
2013-01-17 17:29:00,34.1,22.5,30.43,SW,219,0.0,0.0,62,0.00,,---,0.00,VWS V14.01,2013-01-17 23:29:00,
2013-01-17 17:34:00,33.8,22.2,30.43,SW,225,0.0,1.0,62,0.00,,---,0.00,VWS V14.01,2013-01-17 23:34:00,
2013-01-17 17:39:00,33.5,22.3,30.43,NW,320,1.0,1.0,63,0.00,,---,0.00,VWS V14.01,2013-01-17 23:39:00,
2013-01-17 17:44:00,33.3,22.1,30.44,West,274,0.0,0.0,63,0.00,,---,0.00,VWS V14.01,2013-01-17 23:44:00,
2013-01-17 17:49:00,33.2,22.0,30.44,West,269,0.0,0.0,63,0.00,,---,0.00,VWS V14.01,2013-01-17 23:49:00,
2013-01-17 17:54:00,33.1,22.3,30.44,WNW,282,0.0,0.0,64,0.00,,---,0.00,VWS V14.01,2013-01-17 23:54:00,
2013-01-17 17:59:00,32.9,22.1,30.44,WNW,283,1.0,1.0,64,0.00,,---,0.00,VWS V14.01,2013-01-17 23:59:00,
2013-01-17 18:04:00,32.7,21.9,30.44,WNW,291,0.0,0.0,64,0.00,,---,0.00,VWS V14.01,2013-01-18 00:04:00,
2013-01-17 18:09:00,32.5,21.7,30.44,WSW,257,0.0,0.0,64,0.00,,---,0.00,VWS V14.01,2013-01-18 00:09:00,
2013-01-17 18:14:00,32.4,22.0,30.44,WNW,284,0.0,0.0,65,0.00,,---,0.00,VWS V14.01,2013-01-18 00:14:00,
2013-01-17 18:19:00,32.1,21.7,30.44,WNW,284,0.0,0.0,65,0.00,,---,0.00,VWS V14.01,2013-01-18 00:19:00,
2013-01-17 18:24:00,31.8,21.8,30.44,WNW,284,0.0,0.0,66,0.00,,---,0.00,VWS V14.01,2013-01-18 00:24:00,
2013-01-17 18:29:00,31.4,21.7,30.45,WNW,284,0.0,0.0,67,0.00,,---,0.00,VWS V14.01,2013-01-18 00:29:00,
2013-01-17 18:34:00,31.1,21.8,30.45,WNW,284,0.0,0.0,68,0.00,,---,0.00,VWS V14.01,2013-01-18 00:34:00,
2013-01-17 18:39:00,30.9,21.9,30.45,WNW,284,0.0,0.0,69,0.00,,---,0.00,VWS V14.01,2013-01-18 00:39:00,
2013-01-17 18:44:00,30.8,21.9,30.45,WNW,285,0.0,0.0,69,0.00,,---,0.00,VWS V14.01,2013-01-18 00:44:00,
2013-01-17 18:49:00,30.7,22.1,30.45,WNW,284,0.0,0.0,70,0.00,,---,0.00,VWS V14.01,2013-01-18 00:49:00,
2013-01-17 18:54:00,30.5,21.9,30.46,WNW,284,0.0,0.0,70,0.00,,---,0.00,VWS V14.01,2013-01-18 00:54:00,
2013-01-17 18:59:00,30.4,21.8,30.46,WNW,284,0.0,0.0,70,0.00,,---,0.00,VWS V14.01,2013-01-18 00:59:00,
2013-01-17 19:04:00,30.5,22.2,30.46,WSW,245,0.0,0.0,71,0.00,,---,0.00,VWS V14.01,2013-01-18 01:04:00,
2013-01-17 19:09:00,30.4,22.1,30.47,WSW,245,0.0,0.0,71,0.00,,---,0.00,VWS V14.01,2013-01-18 01:09:00,
2013-01-17 19:14:00,30.3,22.0,30.47,WSW,245,0.0,0.0,71,0.00,,---,0.00,VWS V14.01,2013-01-18 01:14:00,
2013-01-17 19:19:00,30.2,21.9,30.47,WSW,245,0.0,0.0,71,0.00,,---,0.00,VWS V14.01,2013-01-18 01:19:00,
2013-01-17 19:24:00,30.1,22.2,30.47,WSW,245,0.0,0.0,72,0.00,,---,0.00,VWS V14.01,2013-01-18 01:24:00,
2013-01-17 19:29:00,29.9,22.0,30.47,WSW,245,0.0,0.0,72,0.00,,---,0.00,VWS V14.01,2013-01-18 01:29:00,
2013-01-17 19:34:00,29.8,22.2,30.47,WSW,245,0.0,0.0,73,0.00,,---,0.00,VWS V14.01,2013-01-18 01:34:00,
2013-01-17 19:39:00,29.7,22.1,30.47,WSW,245,0.0,0.0,73,0.00,,---,0.00,VWS V14.01,2013-01-18 01:39:00,
2013-01-17 19:44:00,29.6,22.0,30.47,WSW,245,0.0,0.0,73,0.00,,---,0.00,VWS V14.01,2013-01-18 01:44:00,
2013-01-17 19:49:00,29.5,22.2,30.47,WSW,245,0.0,0.0,74,0.00,,---,0.00,VWS V14.01,2013-01-18 01:49:00,
2013-01-17 19:54:00,29.4,22.1,30.47,WSW,245,0.0,0.0,74,0.00,,---,0.00,VWS V14.01,2013-01-18 01:54:00,
2013-01-17 19:59:00,29.4,22.1,30.47,WSW,245,0.0,0.0,74,0.00,,---,0.00,VWS V14.01,2013-01-18 01:59:00,
2013-01-17 20:04:00,29.4,22.1,30.47,WSW,245,0.0,0.0,74,0.00,,---,0.00,VWS V14.01,2013-01-18 02:04:00,
2013-01-17 20:09:00,29.3,22.1,30.47,WSW,245,0.0,0.0,74,0.00,,---,0.00,VWS V14.01,2013-01-18 02:09:00,
2013-01-17 20:14:00,29.3,22.1,30.47,WSW,245,0.0,0.0,74,0.00,,---,0.00,VWS V14.01,2013-01-18 02:14:00,
2013-01-17 20:19:00,29.2,22.0,30.48,WSW,245,0.0,0.0,74,0.00,,---,0.00,VWS V14.01,2013-01-18 02:19:00,
2013-01-17 20:24:00,29.1,21.9,30.48,WSW,245,0.0,0.0,74,0.00,,---,0.00,VWS V14.01,2013-01-18 02:24:00,
2013-01-17 20:29:00,29.0,22.1,30.48,WSW,245,0.0,0.0,75,0.00,,---,0.00,VWS V14.01,2013-01-18 02:29:00,
2013-01-17 20:34:00,29.0,22.1,30.48,WSW,245,0.0,0.0,75,0.00,,---,0.00,VWS V14.01,2013-01-18 02:34:00,
2013-01-17 20:39:00,29.0,21.8,30.48,WSW,245,0.0,0.0,74,0.00,,---,0.00,VWS V14.01,2013-01-18 02:39:00,
2013-01-17 20:44:00,29.0,21.8,30.48,WSW,245,0.0,0.0,74,0.00,,---,0.00,VWS V14.01,2013-01-18 02:44:00,
2013-01-17 20:49:00,29.0,22.1,30.48,WSW,245,0.0,0.0,75,0.00,,---,0.00,VWS V14.01,2013-01-18 02:49:00,
2013-01-17 20:54:00,28.9,21.7,30.48,WSW,245,0.0,0.0,74,0.00,,---,0.00,VWS V14.01,2013-01-18 02:54:00,
2013-01-17 20:59:00,28.8,21.9,30.48,WSW,245,0.0,0.0,75,0.00,,---,0.00,VWS V14.01,2013-01-18 02:59:00,
2013-01-17 21:04:00,28.8,21.9,30.48,WSW,245,0.0,0.0,75,0.00,,---,0.00,VWS V14.01,2013-01-18 03:04:00,
2013-01-17 21:09:00,28.7,21.8,30.48,WSW,245,0.0,0.0,75,0.00,,---,0.00,VWS V14.01,2013-01-18 03:09:00,
2013-01-17 21:14:00,28.6,21.7,30.49,WSW,245,0.0,0.0,75,0.00,,---,0.00,VWS V14.01,2013-01-18 03:14:00,
2013-01-17 21:19:00,28.5,21.6,30.49,WSW,245,0.0,0.0,75,0.00,,---,0.00,VWS V14.01,2013-01-18 03:19:00,
2013-01-17 21:24:00,28.5,21.9,30.49,WSW,245,0.0,0.0,76,0.00,,---,0.00,VWS V14.01,2013-01-18 03:24:00,
2013-01-17 21:29:00,28.4,21.8,30.49,WSW,245,0.0,0.0,76,0.00,,---,0.00,VWS V14.01,2013-01-18 03:29:00,
2013-01-17 21:34:00,28.3,21.7,30.49,WSW,245,0.0,0.0,76,0.00,,---,0.00,VWS V14.01,2013-01-18 03:34:00,
2013-01-17 21:39:00,28.2,21.9,30.49,North,9,0.0,0.0,77,0.00,,---,0.00,VWS V14.01,2013-01-18 03:39:00,
2013-01-17 21:44:00,28.0,21.7,30.49,North,9,0.0,0.0,77,0.00,,---,0.00,VWS V14.01,2013-01-18 03:44:00,
2013-01-17 21:49:00,27.9,21.6,30.49,North,9,0.0,0.0,77,0.00,,---,0.00,VWS V14.01,2013-01-18 03:49:00,
2013-01-17 21:54:00,27.8,21.9,30.49,North,8,0.0,0.0,78,0.00,,---,0.00,VWS V14.01,2013-01-18 03:54:00,
2013-01-17 21:59:00,27.8,21.9,30.49,North,8,0.0,0.0,78,0.00,,---,0.00,VWS V14.01,2013-01-18 03:59:00,
2013-01-17 22:04:00,27.9,21.6,30.49,North,8,0.0,0.0,77,0.00,,---,0.00,VWS V14.01,2013-01-18 04:04:00,
2013-01-17 22:09:00,27.9,21.6,30.49,North,9,0.0,0.0,77,0.00,,---,0.00,VWS V14.01,2013-01-18 04:09:00,
2013-01-17 22:14:00,27.9,21.9,30.49,North,9,0.0,0.0,78,0.00,,---,0.00,VWS V14.01,2013-01-18 04:14:00,
2013-01-17 22:19:00,27.9,21.9,30.49,North,9,0.0,0.0,78,0.00,,---,0.00,VWS V14.01,2013-01-18 04:19:00,
2013-01-17 22:24:00,27.8,21.9,30.49,North,8,0.0,0.0,78,0.00,,---,0.00,VWS V14.01,2013-01-18 04:24:00,
2013-01-17 22:39:00,27.8,22.1,30.49,North,4,0.0,0.0,79,0.00,,---,0.00,VWS V14.01,2013-01-18 04:39:00,
2013-01-17 22:44:00,27.9,22.2,30.49,North,4,0.0,0.0,79,0.00,,---,0.00,VWS V14.01,2013-01-18 04:44:00,
2013-01-17 22:49:00,27.6,22.2,30.49,North,4,0.0,0.0,80,0.00,,---,0.00,VWS V14.01,2013-01-18 04:49:00,
2013-01-17 22:54:00,27.4,22.0,30.49,North,4,0.0,0.0,80,0.00,,---,0.00,VWS V14.01,2013-01-18 04:54:00,
2013-01-17 22:59:00,27.1,21.8,30.49,North,4,0.0,0.0,80,0.00,,---,0.00,VWS V14.01,2013-01-18 04:59:00,
2013-01-17 23:00:00,27.1,21.8,30.49,North,4,0.0,0.0,80,0.00,,---,0.00,VWS V14.01,2013-01-18 05:00:00,
2013-01-17 23:01:00,27.0,21.7,30.49,North,4,0.0,0.0,80,0.00,,---,0.00,VWS V14.01,2013-01-18 05:01:00,
2013-01-17 23:06:00,26.9,21.9,30.49,North,4,0.0,0.0,81,0.00,,---,0.00,VWS V14.01,2013-01-18 05:06:00,
2013-01-17 23:11:00,26.9,21.9,30.49,North,4,0.0,0.0,81,0.00,,---,0.00,VWS V14.01,2013-01-18 05:11:00,
2013-01-17 23:16:00,26.9,21.6,30.49,North,4,0.0,0.0,80,0.00,,---,0.00,VWS V14.01,2013-01-18 05:16:00,
2013-01-17 23:21:00,26.8,21.8,30.49,North,4,0.0,0.0,81,0.00,,---,0.00,VWS V14.01,2013-01-18 05:21:00,
2013-01-17 23:26:00,26.9,21.9,30.49,North,4,0.0,0.0,81,0.00,,---,0.00,VWS V14.01,2013-01-18 05:26:00,
2013-01-17 23:31:00,26.9,21.9,30.49,North,4,0.0,0.0,81,0.00,,---,0.00,VWS V14.01,2013-01-18 05:31:00,
2013-01-17 23:36:00,26.9,22.1,30.49,North,4,0.0,0.0,82,0.00,,---,0.00,VWS V14.01,2013-01-18 05:36:00,
2013-01-17 23:41:00,27.1,22.4,30.49,North,4,0.0,0.0,82,0.00,,---,0.00,VWS V14.01,2013-01-18 05:41:00,
2013-01-17 23:46:00,27.2,22.1,30.49,North,4,0.0,0.0,81,0.00,,---,0.00,VWS V14.01,2013-01-18 05:46:00,
2013-01-17 23:51:00,27.2,22.1,30.49,North,4,0.0,0.0,81,0.00,,---,0.00,VWS V14.01,2013-01-18 05:51:00,
2013-01-17 23:56:00,27.2,22.1,30.49,North,4,0.0,0.0,81,0.00,,---,0.00,VWS V14.01,2013-01-18 05:56:00,